Wind_Speed
5 4 3 3 2 2 2 3 3 4 6 7 7 6 7 7 7 8 8 8 9 8 8 7 8 8 8 8 8 8 9 9 10 10 10 11 11 11 11 11 11 11 11 11 11 11 11 11 12
6 5 3 2 1 1 2 4 5 5 7 8 8 8 7 7 8 8 8 9 9 8 8 8 8 9 9 9 9 10 10 11 11 11 11 11 10 11 11 11 12 12 11 11 12 12 12 13 13
6 5 3 2 1 1 4 6 5 6 7 8 9 9 9 9 10 9 9 11 11 10 9 9 9 10 10 11 11 11 11 11 11 12 12 11 12 12 12 12 12 13 13 13 13 13 13 14 14
6 5 2 0 2 3 5 6 6 7 7 8 10 9 9 9 10 10 11 12 13 12 11 10 11 11 11 11 12 12 12 11 12 12 12 13 13 13 13 14 14 14 14 14 14 15 15 15 15
7 5 2 2 6 6 7 8 10 10 9 9 10 9 9 11 10 11 12 13 14 13 13 12 12 13 13 13 13 13 12 13 13 13 13 14 14 15 15 15 16 15 16 16 16 16 17 17 17
7 4 2 5 7 7 8 10 9 10 9 8 10 10 9 11 11 11 12 13 14 14 15 14 14 14 14 14 14 14 14 14 14 15 15 15 16 16 17 17 18 18 17 17 17 17 17 17 17
8 5 4 6 6 8 10 10 8 8 9 10 10 11 11 12 11 11 11 13 14 14 15 15 14 15 16 16 16 16 15 16 16 17 17 17 18 18 19 19 20 20 19 19 19 18 18 17 18
8 6 4 7 9 10 11 10 9 10 10 10 10 10 11 11 12 12 12 13 14 16 16 16 16 16 17 17 17 17 17 18 18 18 19 20 20 21 21 21 21 21 21 20 20 20 19 19 18
6 5 6 8 10 10 12 11 11 12 11 11 9 9 12 14 13 13 14 15 16 17 17 17 18 18 17 17 18 19 19 20 20 20 21 22 22 22 23 23 23 23 23 21 21 21 21 20 20
7 7 8 8 10 10 11 10 11 12 11 11 10 10 13 15 15 14 15 16 17 18 18 18 19 19 19 19 20 20 21 22 22 22 23 24 24 24 24 24 24 24 24 24 23 22 22 22 21
10 8 8 9 11 10 9 10 11 12 12 12 13 14 14 16 16 17 17 17 18 19 19 19 20 20 21 21 22 22 23 23 23 24 25 26 26 26 26 25 25 25 25 25 25 24 23 23 24
9 8 10 10 12 10 10 11 12 13 14 13 14 14 14 15 16 17 17 18 18 19 20 20 21 22 23 24 24 24 24 24 25 26 27 27 27 28 27 26 27 27 26 26 26 25 24 24 24
7 8 9 9 10 10 9 11 12 13 15 14 15 16 15 16 18 18 18 19 20 20 21 21 22 23 24 25 25 25 25 26 27 27 28 28 28 28 28 27 27 27 26 26 26 26 25 24 24
7 8 8 8 9 11 11 12 13 14 14 15 15 16 16 17 17 18 18 19 20 21 21 21 22 23 24 24 25 26 27 27 27 28 28 29 29 30 30 29 28 28 27 27 27 26 25 25 25
3 5 6 9 11 12 13 13 14 14 14 15 15 15 16 17 17 17 18 20 20 21 22 22 23 24 25 26 26 26 27 28 28 29 30 30 30 29 30 30 28 28 28 27 27 26 26 26 26
3 5 7 10 12 13 13 13 14 14 15 16 15 15 16 17 18 18 19 20 21 22 22 23 25 25 25 26 26 26 27 28 29 30 30 30 30 30 30 30 29 28 28 27 26 26 26 27 26
4 6 8 11 11 11 12 14 16 14 14 15 16 16 17 17 18 19 20 21 22 23 23 23 25 27 26 26 27 27 28 29 29 30 30 29 30 30 30 30 29 28 28 28 27 27 27 26 25
5 8 8 10 11 11 12 13 15 15 15 15 16 17 18 18 19 20 21 22 22 24 25 25 26 27 27 27 28 28 28 29 29 29 29 30 30 30 30 29 29 29 28 28 28 27 27 26 25
6 7 7 9 11 11 12 13 14 16 16 17 17 18 18 19 20 20 21 23 24 25 25 25 27 27 27 28 29 29 29 29 30 30 30 30 29 29 29 29 29 28 28 27 27 27 26 26 25
5 5 7 9 9 10 12 13 14 15 18 19 18 19 20 19 20 20 21 24 25 26 26 27 27 28 28 29 30 30 30 31 31 30 30 30 29 28 28 28 27 27 26 25 24 25 25 25 25
6 5 7 10 10 9 11 14 15 16 20 20 19 20 20 20 21 21 22 24 25 26 28 28 28 28 29 29 29 30 32 32 31 30 29 28 28 27 26 26 25 25 24 25 24 24 25 24 25
7 7 8 10 10 9 10 14 16 18 20 21 21 22 23 22 22 23 24 25 26 28 28 28 29 29 29 29 30 31 31 31 30 28 28 27 26 25 25 25 24 24 24 24 24 24 23 24 24
8 8 8 9 9 9 10 14 18 19 19 20 21 23 25 24 24 24 25 26 27 28 28 29 30 30 30 30 30 30 29 29 29 27 26 25 23 23 23 24 23 23 24 24 24 24 23 24 24
8 10 9 9 10 12 11 14 19 21 21 22 22 23 26 26 26 25 25 26 27 28 28 29 30 30 29 29 29 29 27 27 26 26 25 23 22 22 22 23 23 23 24 23 23 23 23 23 23
9 9 10 10 11 12 11 13 19 21 22 23 24 26 27 27 27 27 27 27 28 28 29 30 30 29 29 28 28 28 27 26 25 24 23 22 21 22 22 22 22 23 23 23 23 23 23 23 23
10 9 10 11 12 12 11 15 20 20 23 24 25 26 27 28 27 27 28 27 27 28 28 29 29 28 28 27 27 27 26 25 24 23 22 21 21 21 22 21 21 21 22 23 23 23 23 22 22
10 8 9 13 13 12 13 17 19 21 23 24 25 26 27 28 27 27 27 27 27 28 28 28 28 28 27 26 26 26 25 24 23 22 21 20 20 21 21 21 21 21 21 22 22 22 22 22 22
9 11 11 12 13 13 13 15 19 20 23 24 25 25 26 27 27 26 26 26 27 27 28 28 27 26 26 25 24 24 24 23 22 21 21 21 21 20 21 20 20 21 21 21 20 21 21 21 22
11 12 12 12 12 13 15 17 20 22 24 25 25 26 27 26 25 25 25 26 26 26 26 26 25 25 25 24 23 23 23 22 21 21 21 21 20 20 20 19 19 19 20 20 20 20 20 20 20
12 12 13 14 14 15 16 18 21 23 24 23 24 25 25 25 25 25 26 25 25 25 25 25 24 24 23 22 22 22 22 22 21 21 21 20 20 19 19 19 19 18 18 19 19 19 19 19 18
Wind_Direction
167 160 149 143 107 76 8 292 272 265 262 265 271 269 273 277 286 298 303 311 317 316 314 307 306 307 301 302 301 298 300 299 293 288 285 286 286 285 285 283 280 276 277 277 275 274 276 276 274
175 173 174 166 137 50 302 273 282 275 264 265 270 279 280 289 296 307 317 316 317 317 315 312 309 308 304 304 304 302 301 299 297 294 291 289 287 286 286 284 285 280 278 278 276 275 275 275 273
181 183 176 171 268 305 283 271 274 270 264 270 278 285 293 301 305 314 317 316 315 316 311 312 312 308 306 307 308 303 301 298 296 297 297 294 290 290 289 288 290 286 283 282 281 278 277 275 272
182 176 162 359 296 296 289 273 259 272 271 278 279 285 291 305 313 315 310 310 315 315 310 312 313 310 308 305 303 304 301 298 298 298 298 296 294 294 293 292 291 289 287 285 283 280 279 275 274
187 172 123 287 275 280 288 278 265 267 271 284 292 293 295 306 314 320 315 313 315 318 314 311 311 309 306 305 302 302 300 297 297 298 297 294 294 294 293 291 290 288 288 288 285 284 281 277 275
190 173 229 247 259 276 278 271 269 270 268 279 289 288 292 298 305 312 314 317 317 318 317 314 312 310 308 307 306 303 299 297 298 298 295 293 294 294 293 291 289 288 287 289 287 286 284 277 276
187 183 226 248 255 270 269 277 270 272 269 271 281 289 294 293 304 312 313 315 315 316 315 317 312 309 307 306 304 303 301 298 298 296 295 294 293 293 293 293 291 290 288 289 287 284 282 280 277
191 191 228 248 252 262 266 270 274 278 272 275 277 288 297 295 302 310 312 312 313 315 315 314 311 309 307 304 303 302 301 298 297 297 296 294 293 292 293 292 290 289 288 289 287 285 282 281 280
198 212 238 256 255 269 269 267 274 279 278 274 275 281 288 292 299 307 312 313 314 315 315 313 311 311 309 306 304 303 299 297 295 294 294 293 292 292 293 292 290 289 289 287 285 284 281 280 280
213 230 234 254 264 268 268 272 274 281 277 277 281 288 291 294 298 306 310 310 312 313 314 311 310 310 307 306 304 302 300 297 293 291 291 291 291 292 293 292 290 288 286 286 284 284 281 278 279
226 236 246 251 259 262 268 273 269 277 280 280 279 287 291 296 301 305 306 307 309 310 311 309 309 309 307 305 304 302 300 298 295 293 292 291 290 291 291 289 288 287 286 285 284 282 280 277 277
232 244 249 256 263 267 275 272 271 275 281 281 284 288 293 296 299 299 302 306 306 305 306 308 308 306 305 304 302 300 300 299 297 296 296 295 295 294 292 291 287 285 285 285 282 280 278 279 277
240 253 255 259 261 270 274 279 280 279 284 289 293 294 292 294 298 298 299 301 304 304 303 304 304 304 304 304 302 301 298 296 296 296 296 295 295 295 294 293 291 288 286 285 282 280 278 279 278
247 253 250 258 270 287 288 286 288 289 287 292 293 293 293 293 294 299 300 301 302 303 303 305 306 307 305 304 301 297 297 296 295 295 295 296 296 295 292 292 290 288 287 287 283 282 280 278 279
256 275 272 273 276 282 283 284 284 295 293 296 295 292 294 297 300 304 302 302 304 305 305 306 306 306 305 304 302 301 298 296 295 295 294 295 295 294 294 293 290 288 286 284 283 282 281 280 278
330 303 284 273 281 281 285 288 283 297 299 298 298 295 295 294 296 301 302 300 303 304 307 309 308 307 307 306 305 303 300 298 296 295 294 295 295 295 295 292 291 289 286 285 283 283 282 282 279
304 284 273 274 279 282 286 287 290 295 298 298 298 297 295 298 302 303 301 301 303 307 310 309 308 308 307 308 307 304 302 300 298 296 295 295 295 294 293 292 291 289 286 284 283 283 282 280 279
266 261 263 267 276 278 278 283 289 294 294 295 296 298 297 300 304 303 302 302 305 306 307 310 310 309 309 308 307 305 302 301 299 298 297 295 294 294 294 293 290 288 286 285 284 281 281 280 279
263 259 268 281 287 285 278 281 284 288 297 298 299 302 302 304 302 303 305 306 307 308 311 310 311 310 309 308 307 305 303 301 300 299 296 296 295 295 293 293 290 287 284 282 282 281 280 277 277
279 279 295 292 288 286 284 286 292 295 296 300 300 301 305 307 304 304 305 306 308 310 311 312 313 311 309 309 308 306 305 303 301 299 298 295 294 294 295 293 290 285 283 282 282 283 281 279 278
320 308 296 290 294 298 293 290 291 292 295 298 301 303 306 304 306 307 305 306 310 313 314 312 312 311 312 311 310 308 306 306 304 301 298 296 294 293 294 293 291 286 285 283 281 283 280 279 277
312 306 299 298 304 300 298 288 283 283 289 295 298 303 306 308 305 307 307 307 310 313 314 314 313 313 313 312 312 311 310 308 305 300 298 297 295 294 293 293 290 286 285 284 284 286 284 281 277
296 295 298 312 308 303 286 275 279 285 288 295 302 304 307 309 307 306 306 307 310 312 313 315 315 314 313 314 314 314 314 311 308 307 304 303 301 298 296 294 290 287 285 284 284 285 285 283 279
299 308 313 319 308 295 288 278 284 291 294 301 306 304 307 309 309 309 308 308 310 312 313 314 314 315 316 316 316 316 316 315 313 311 311 309 305 301 297 294 290 287 286 285 284 285 287 284 282
300 309 317 309 297 293 288 285 286 294 295 298 301 305 309 310 310 312 312 311 312 313 315 314 312 314 317 318 318 319 317 316 315 315 315 311 307 304 301 298 293 288 287 287 285 285 285 285 284
299 308 305 298 297 302 302 289 290 299 298 298 302 306 308 310 311 312 313 314 314 314 315 316 316 316 318 319 319 318 318 318 319 318 317 314 310 307 304 301 298 291 288 286 286 286 285 285 285
306 305 298 302 308 304 293 288 289 295 298 301 304 306 308 309 311 313 314 314 315 315 316 317 318 319 320 320 321 321 321 319 319 319 319 316 314 310 307 303 300 295 292 290 287 286 286 285 286
309 309 305 308 309 308 306 293 291 299 302 305 304 306 308 311 312 314 315 315 315 316 317 318 318 320 321 320 322 323 324 322 322 321 320 318 316 313 309 305 302 298 296 295 294 292 289 288 288
302 305 307 305 300 298 302 302 301 301 304 307 309 309 309 313 314 316 316 316 317 317 319 322 321 322 323 325 325 327 328 327 326 325 324 322 319 318 316 312 307 303 302 299 297 297 296 293 292
295 299 304 306 306 304 303 300 302 304 307 309 310 310 311 312 314 316 317 317 318 319 321 322 322 322 324 326 326 328 330 329 326 324 324 324 324 323 320 316 313 309 306 303 302 301 302 298 295
Height
5882 5882 5883 5884 5885 5885 5885 5886 5885 5885 5884 5882 5882 5882 5881 5882 5882 5883 5880 5877 5877 5876 5875 5875 5874 5873 5873 5873 5873 5872 5871 5871 5870 5869 5869 5869 5868 5868 5868 5867 5867 5866 5865 5865 5865 5865 5865 5864 5864
5881 5882 5883 5883 5884 5884 5886 5885 5885 5884 5883 5882 5881 5881 5881 5881 5880 5879 5877 5877 5877 5875 5874 5874 5873 5873 5872 5872 5871 5871 5870 5870 5869 5868 5867 5867 5866 5866 5866 5865 5865 5864 5863 5863 5863 5862 5862 5862 5862
5880 5881 5882 5882 5883 5884 5885 5885 5884 5883 5882 5882 5881 5880 5880 5880 5879 5877 5877 5876 5876 5875 5873 5872 5872 5872 5871 5871 5870 5869 5869 5868 5867 5867 5866 5865 5865 5864 5864 5863 5863 5862 5861 5860 5860 5859 5859 5859 5858
5879 5881 5881 5883 5883 5884 5884 5884 5883 5883 5882 5881 5880 5879 5879 5878 5878 5877 5876 5874 5874 5873 5872 5871 5871 5870 5870 5869 5869 5868 5867 5866 5865 5865 5864 5863 5863 5862 5862 5861 5860 5860 5859 5858 5857 5857 5856 5855 5855
5878 5879 5880 5882 5884 5884 5883 5882 5882 5881 5880 5880 5879 5878 5877 5877 5877 5876 5875 5874 5873 5871 5870 5870 5870 5869 5868 5867 5866 5865 5865 5864 5863 5862 5862 5861 5861 5860 5859 5858 5858 5857 5856 5855 5854 5853 5853 5852 5852
5876 5877 5880 5882 5883 5882 5882 5881 5880 5879 5879 5878 5877 5877 5876 5875 5875 5875 5874 5873 5871 5871 5869 5869 5868 5867 5866 5865 5864 5863 5862 5861 5861 5860 5859 5858 5858 5857 5856 5855 5855 5853 5852 5851 5851 5850 5849 5848 5848
5875 5876 5879 5881 5882 5881 5880 5878 5878 5876 5877 5877 5876 5875 5874 5873 5873 5873 5872 5871 5869 5869 5868 5867 5866 5865 5864 5863 5862 5861 5860 5859 5858 5857 5856 5856 5855 5854 5853 5852 5851 5849 5849 5848 5847 5846 5845 5844 5844
5873 5876 5877 5878 5879 5880 5878 5876 5875 5875 5875 5874 5874 5874 5872 5872 5871 5871 5870 5869 5868 5867 5866 5865 5865 5864 5862 5861 5859 5858 5857 5856 5855 5854 5853 5852 5851 5850 5849 5848 5847 5846 5845 5844 5843 5842 5841 5841 5840
5872 5875 5876 5876 5877 5878 5876 5875 5874 5873 5873 5872 5872 5872 5871 5870 5869 5869 5868 5867 5866 5865 5864 5862 5861 5860 5859 5858 5857 5855 5854 5853 5851 5850 5849 5848 5847 5846 5845 5844 5843 5841 5840 5839 5838 5838 5837 5836 5836
5871 5873 5875 5875 5876 5875 5873 5872 5872 5871 5870 5870 5870 5869 5868 5868 5868 5867 5866 5865 5864 5862 5861 5860 5858 5857 5855 5854 5853 5852 5850 5849 5847 5846 5845 5843 5842 5841 5840 5839 5838 5836 5835 5834 5834 5833 5833 5832 5831
5870 5871 5873 5874 5873 5872 5871 5870 5869 5868 5868 5868 5868 5866 5866 5866 5866 5865 5864 5863 5862 5860 5858 5857 5856 5854 5853 5851 5849 5848 5846 5845 5844 5842 5840 5838 5837 5836 5834 5833 5832 5831 5830 5829 5828 5828 5827 5827 5826
5868 5869 5870 5871 5870 5870 5869 5868 5868 5867 5866 5866 5864 5864 5864 5864 5863 5862 5862 5860 5859 5857 5856 5854 5853 5851 5849 5848 5846 5843 5842 5840 5839 5837 5835 5833 5832 5830 5829 5827 5826 5825 5824 5823 5822 5822 5821 5821 5820
5867 5868 5868 5868 5868 5868 5868 5867 5866 5866 5865 5864 5863 5863 5862 5862 5860 5859 5858 5858 5856 5854 5852 5851 5849 5847 5845 5843 5841 5839 5837 5836 5834 5832 5830 5828 5826 5824 5823 5821 5820 5819 5818 5817 5816 5815 5815 5814 5814
5866 5866 5866 5866 5867 5866 5866 5865 5864 5863 5863 5862 5862 5861 5860 5859 5858 5856 5854 5854 5853 5851 5849 5847 5845 5843 5841 5839 5837 5835 5832 5830 5828 5826 5824 5822 5820 5818 5816 5815 5814 5813 5812 5810 5810 5809 5808 5808 5808
5864 5865 5866 5866 5866 5865 5865 5863 5862 5861 5860 5859 5859 5859 5858 5856 5855 5853 5852 5851 5849 5847 5845 5843 5841 5839 5837 5834 5832 5829 5827 5824 5823 5820 5818 5816 5814 5812 5810 5808 5807 5806 5805 5804 5803 5803 5802 5802 5801
5863 5865 5866 5866 5865 5864 5864 5862 5860 5859 5859 5857 5857 5856 5855 5854 5852 5851 5850 5848 5846 5843 5840 5839 5836 5834 5832 5829 5827 5824 5821 5819 5816 5814 5812 5810 5807 5805 5803 5802 5800 5799 5798 5797 5796 5796 5796 5795 5795
5864 5866 5866 5865 5864 5863 5863 5861 5858 5857 5857 5856 5855 5854 5853 5851 5849 5848 5847 5845 5842 5839 5836 5835 5832 5829 5826 5824 5821 5818 5816 5813 5810 5808 5806 5803 5801 5798 5797 5795 5793 5792 5791 5790 5789 5789 5788 5788 5788
5864 5865 5865 5865 5862 5863 5861 5859 5857 5855 5855 5854 5852 5851 5849 5848 5847 5845 5843 5841 5839 5836 5833 5830 5828 5824 5821 5819 5816 5813 5809 5806 5804 5801 5799 5796 5794 5791 5789 5787 5786 5784 5784 5783 5782 5782 5781 5780 5780
5863 5863 5862 5863 5861 5860 5859 5857 5856 5854 5853 5851 5849 5847 5845 5844 5842 5841 5839 5837 5834 5831 5827 5825 5822 5819 5816 5813 5810 5806 5802 5800 5797 5794 5791 5789 5786 5784 5782 5780 5778 5777 5776 5775 5775 5774 5774 5773 5773
5860 5860 5861 5861 5859 5857 5856 5855 5853 5852 5850 5848 5846 5845 5843 5841 5839 5838 5835 5832 5830 5827 5823 5821 5817 5814 5811 5807 5803 5799 5795 5792 5790 5787 5784 5781 5779 5777 5775 5772 5771 5769 5769 5768 5767 5767 5766 5766 5766
5860 5860 5860 5859 5857 5856 5855 5853 5851 5849 5846 5845 5843 5842 5840 5838 5836 5834 5831 5828 5825 5822 5819 5816 5812 5809 5805 5801 5798 5793 5788 5784 5782 5779 5776 5773 5771 5769 5767 5765 5764 5763 5762 5761 5761 5760 5760 5759 5759
5860 5860 5858 5856 5855 5854 5854 5852 5849 5846 5844 5842 5841 5839 5837 5835 5833 5830 5827 5824 5821 5818 5814 5810 5807 5803 5799 5795 5791 5787 5782 5778 5775 5772 5769 5766 5764 5762 5760 5758 5757 5756 5755 5755 5754 5753 5752 5752 5751
5858 5857 5856 5854 5853 5852 5851 5850 5846 5843 5841 5839 5838 5836 5834 5831 5828 5826 5823 5820 5816 5813 5810 5806 5802 5798 5794 5790 5785 5780 5776 5772 5769 5765 5762 5759 5757 5755 5753 5752 5750 5749 5749 5748 5747 5747 5746 5745 5744
5856 5855 5854 5852 5852 5851 5849 5847 5844 5841 5839 5837 5835 5833 5830 5827 5824 5821 5818 5815 5811 5808 5804 5801 5797 5793 5789 5784 5779 5775 5771 5767 5764 5760 5756 5754 5751 5749 5747 5745 5744 5743 5742 5741 5740 5740 5739 5738 5737
5854 5854 5852 5851 5850 5848 5846 5844 5841 5837 5837 5835 5832 5829 5826 5823 5820 5816 5813 5810 5807 5803 5799 5795 5791 5788 5783 5779 5774 5770 5766 5762 5759 5755 5751 5748 5746 5744 5742 5739 5738 5736 5735 5734 5734 5733 5732 5731 5731
5852 5852 5852 5850 5848 5846 5844 5842 5838 5834 5833 5831 5829 5826 5823 5819 5816 5813 5809 5805 5802 5798 5794 5790 5786 5782 5778 5774 5770 5765 5761 5757 5754 5750 5747 5744 5741 5739 5736 5734 5732 5730 5729 5728 5727 5726 5726 5725 5725
5851 5850 5850 5847 5846 5844 5842 5838 5834 5831 5830 5828 5825 5822 5819 5816 5812 5809 5805 5801 5797 5793 5789 5785 5781 5777 5773 5769 5765 5761 5757 5753 5749 5746 5743 5740 5737 5734 5731 5729 5727 5725 5724 5722 5721 5721 5720 5719 5718
5849 5848 5846 5845 5843 5842 5841 5836 5830 5828 5827 5825 5821 5818 5815 5812 5808 5804 5801 5797 5793 5789 5785 5780 5776 5773 5769 5765 5761 5757 5753 5749 5745 5742 5739 5735 5732 5729 5726 5724 5723 5721 5719 5718 5717 5716 5714 5713 5712
5847 5846 5844 5843 5841 5840 5837 5835 5829 5827 5824 5821 5818 5814 5811 5808 5804 5800 5796 5792 5788 5785 5780 5776 5772 5768 5765 5761 5757 5754 5750 5745 5742 5739 5735 5732 5729 5725 5723 5720 5719 5717 5715 5713 5712 5711 5709 5708 5706
5845 5843 5842 5840 5838 5836 5834 5834 5826 5824 5821 5818 5815 5811 5807 5804 5800 5796 5792 5788 5784 5780 5776 5772 5769 5765 5761 5758 5754 5751 5747 5743 5739 5736 5732 5729 5726 5723 5720 5717 5715 5713 5711 5709 5707 5706 5704 5702 5701